Weather in Prokudino

Russia / Kaluga Oblast     54°39′03″N   35°45′53″E
temp.,
°C
wind,
m/s
gust,
m/s
humid.,
%
clouds,
%
prec.,
mm/h
press.,
hPa
HPBL,
m
8 march, mon
mon800:00−6w5138454 0.0 999681
03:00−6wsw4129175 0.0 999602
06:00−6w51289100 0.1 999807
09:00−6wnw51082100 0.2 10001343
12:00−6nw477793 0.0 1003815
15:00−5nw467796 0.1 1005897
18:00−7nw268699 0.0 1007196
21:00−9nw259393 0.0 1010111
9 march, tue
tue900:00−9nne389189 0.2 1011422
03:00−13nnw269593 0.2 1013157
06:00−15nnw279512 0.0 1015157
09:00−14nnw36896 0.0 1017304
12:00−10nnw357773 0.0 1018755
15:00−9nw457586 0.1 10191012
18:00−11nw3786100 0.1 1019409
21:00−15n229496 0.1 102330
10 march, wed
wed1000:00−17n229417 0.0 102434
03:00−19n22959 0.0 102631
06:00−21nne22960 0.0 102742
09:00−20nne24901 0.0 1029260
12:00−15ne23736 0.0 1029511
15:00−13ne24693 0.0 1030699
18:00−15ne11820 0.0 103020
21:00−18n12880 0.0 103220
11 march, thu
thu1100:00−19nnw11890 0.0 103320
03:00−20nw11860 0.0 103420
06:00−20w128728 0.0 103420
09:00−17w127821 0.0 1035135
12:00−10w12640 0.0 1033458
15:00−9ssw22620 0.0 1032644
18:00−12ssw23840 0.0 103146
21:00−16sse23880 0.0 103184
12 march, fri
fri1200:00−18s37820 0.0 1031178
03:00−18s311800 0.0 1029267
06:00−18sse4118354 0.0 1027303
09:00−14sse5128277 0.0 1024400
12:00−8s61477100 0.0 1021708
15:00−6s81590100 0.4 1017974
18:00−5s81791100 1.5 10141288
21:00−4s71693100 2.6 10131111